Home   Weather   Downey   Past weeks

Flag for USA Past Weather in Downey, California, USA — Yesterday and Last 2 Weeks

Now
71 °F

Overcast.


Feels Like: 72 °F
Forecast: 67 / 80 °F
Wind: 3 mph from Northwest

Location: Long Beach Airport

Current Time: Jul 25, 2017 at 7:42:32 am

Latest Report: Jul 25, 2017 at 6:53 am


Visibility: 10 mi

Pressure: 29.95 "Hg

Humidity: 78%

Dew Point: 64 °F

Location of DowneyLocation

Past Weather in Downey — Graph

°F

Downey Temperature Yesterday

Maximum temperature yesterday: 77 °F (at 4:53 pm)
Minimum temperature yesterday: 69 °F (at 12:18 am)
Average temperature yesterday: 72 °F

High & Low Weather Summary for the Past Weeks

 TemperatureHumidityPressure
High86 °F (Jul 11, 3:53 pm)87% (Jul 13, 3:53 am)30.02 "Hg (Jul 13, 3:53 am)
Low65 °F (Jul 14, 4:53 am)31% (Jul 23, 4:53 pm)29.81 "Hg (Jul 23, 4:53 pm)
Average73 °F72%29.92 "Hg
* Reported Jul 10 5:53 am — Jul 25 5:53 am, Downey. Weather by CustomWeather, © 2017

Note: Actual official high and low records may vary slightly from our data, if they occured in-between our weather recording intervals... More about our weather records

Advertising

Downey Weather History for the Previous 24 Hours

Scroll right to see more
 ConditionsComfort  
Time TempWeatherWind HumidityBarometerVisibility
5:53 am
Tue, Jul 25
70 °FOvercast.No wind79%29.93 "Hg10 mi
4:53 am70 °FOvercast.No wind79%29.93 "Hg10 mi
3:53 am69 °FPassing clouds.5 mph81%29.93 "Hg10 mi
3:32 am70 °FPassing clouds.6 mph79%29.93 "Hg10 mi
3:23 am70 °FPassing clouds.6 mph79%29.93 "Hg10 mi
2:53 am70 °FPassing clouds.6 mph79%29.93 "Hg10 mi
2:22 am70 °FPassing clouds.5 mph79%29.94 "Hg10 mi
2:01 am70 °FOvercast.5 mph79%29.94 "Hg10 mi
1:34 am70 °FMostly cloudy.5 mph79%29.95 "Hg10 mi
1:20 am70 °FPassing clouds.3 mph79%29.95 "Hg10 mi
12:53 am70 °FClear.5 mph81%29.94 "Hg10 mi
11:53 pm
Mon, Jul 24
70 °FClear.5 mph81%29.94 "Hg10 mi
10:53 pm71 °FClear.6 mph78%29.92 "Hg10 mi
9:53 pm71 °FClear.5 mph78%29.90 "Hg10 mi
8:53 pm72 °FClear.6 mph76%29.88 "Hg10 mi
7:53 pm74 °FSunny.5 mph69%29.87 "Hg10 mi
6:53 pm75 °FSunny.10 mph69%29.86 "Hg10 mi
5:53 pm77 °FSunny.7 mph54%29.85 "Hg10 mi
4:53 pm77 °FSunny.7 mph60%29.86 "Hg10 mi
3:53 pm76 °FSunny.7 mph64%29.87 "Hg10 mi
2:53 pm74 °FSunny.9 mph74%29.88 "Hg10 mi
1:53 pm74 °FSunny.8 mph74%29.90 "Hg10 mi
12:53 pm75 °FSunny.9 mph69%29.91 "Hg10 mi
11:53 am75 °FScattered clouds.8 mph69%29.92 "Hg10 mi
10:53 am76 °FSunny.5 mph67%29.93 "Hg10 mi
9:53 am73 °FScattered clouds.5 mph74%29.94 "Hg10 mi
8:53 am73 °FPartly sunny.3 mph74%29.92 "Hg10 mi
7:53 am71 °FPartly sunny.No wind78%29.90 "Hg10 mi
7:13 am69 °FOvercast.No wind84%29.91 "Hg10 mi
Weather by CustomWeather, © 2017

See weather overviewHow to use our weather pages